Theta_e
337 336 334 335 335 333 333 334 336 340 342 343 339 339 339 342 346 345 344 345 345 344 346 345 345 345 343 342 342 342 340 336 333 336 340 342 342 342 345 346 350 347 346
338 337 336 336 335 333 333 334 335 336 338 341 343 343 345 345 345 343 343 345 345 344 345 345 345 348 345 344 342 342 341 340 337 334 337 340 340 343 343 342 348 354 349
340 339 337 336 335 335 336 337 337 339 339 342 344 343 344 344 345 345 344 346 345 344 344 344 344 345 342 342 342 341 342 343 340 336 335 339 342 346 345 344 346 346 350
342 339 337 337 339 339 339 340 341 342 342 343 342 343 345 346 345 345 344 344 343 343 342 344 344 344 344 343 343 341 340 339 340 338 336 337 339 344 343 341 339 342 343
337 337 336 337 339 338 334 335 336 337 338 338 338 340 343 346 349 345 343 343 344 344 347 347 346 346 346 344 345 343 342 340 339 338 336 334 335 338 337 338 338 339 340
333 333 335 333 332 332 333 332 333 333 334 335 333 335 336 342 338 338 340 341 341 341 341 343 343 345 344 341 341 341 343 341 338 338 336 333 333 334 335 336 336 334 332
332 333 332 330 330 331 332 331 331 330 332 331 331 332 333 336 335 334 339 340 340 340 340 340 341 348 345 345 340 337 337 337 340 341 338 336 335 336 336 332 335 333 330
328 329 334 333 332 333 332 330 329 329 329 329 329 330 331 335 330 329 334 334 335 336 337 338 338 341 342 342 343 342 342 341 340 341 342 342 341 342 340 337 333 333 333
332 333 333 333 332 332 329 327 327 327 327 327 328 328 328 330 327 327 328 332 333 332 334 334 335 336 335 332 335 335 336 337 338 333 335 335 335 336 340 336 332 330 328
333 335 335 331 329 327 327 325 326 326 326 327 327 327 327 328 326 324 325 329 329 331 332 334 331 333 327 324 333 333 330 331 333 335 337 334 332 336 335 341 340 334 331
333 330 329 329 328 327 326 324 324 324 324 322 322 323 324 325 326 322 321 325 329 330 330 332 332 322 318 318 322 328 328 330 331 329 332 334 334 334 336 337 342 339 330
329 328 328 327 327 328 324 323 323 322 319 319 318 319 321 321 321 320 317 318 324 327 326 329 331 319 313 313 316 321 317 319 325 324 324 327 330 333 335 336 336 338 339
321 321 322 323 324 325 322 321 319 319 317 317 317 317 317 320 321 318 317 318 318 320 326 326 322 314 310 311 313 315 317 324 327 324 323 325 328 333 336 334 336 334 335
316 317 318 318 317 318 319 318 317 316 315 315 315 314 315 316 318 320 319 319 320 321 322 323 323 321 318 321 323 320 323 327 327 327 326 328 330 332 333 337 338 337 334
313 314 313 314 314 315 315 315 316 317 315 316 314 315 315 315 317 314 312 315 314 316 313 320 320 320 321 320 319 320 322 325 327 327 327 327 327 330 332 336 337 336 333
307 309 309 311 313 313 314 314 313 309 308 305 304 306 316 311 307 305 302 300 300 301 309 315 319 319 319 318 315 315 318 324 324 325 327 327 326 327 327 332 335 334 332
303 305 307 308 309 309 310 310 309 311 308 306 303 303 301 304 303 301 298 298 297 301 308 310 311 313 315 315 317 317 318 319 323 323 325 326 327 327 326 330 333 332 331
303 306 305 306 306 307 307 307 308 308 309 313 310 308 306 304 301 300 300 299 308 305 311 311 312 314 315 316 317 317 318 320 321 323 325 327 327 327 327 329 332 333 331
304 305 305 305 306 307 308 308 308 308 309 309 310 309 309 305 303 300 298 312 314 314 315 313 312 314 315 316 318 320 320 320 321 323 324 325 327 328 327 330 331 321 325
306 309 308 306 306 306 306 306 306 307 307 308 309 309 311 314 315 314 314 314 314 315 317 317 317 317 318 319 320 320 321 321 321 322 324 326 328 328 328 330 331 331 329
303 304 306 305 304 304 304 304 304 305 306 308 309 311 303 308 310 312 314 314 313 315 316 315 316 319 321 321 321 321 321 321 322 322 324 326 328 326 329 331 330 331 330
301 302 302 301 302 301 301 301 302 302 303 303 305 307 302 309 311 312 312 312 315 317 319 320 321 322 323 323 323 322 322 322 323 324 324 327 328 328 328 329 329 329 329
298 300 300 300 300 300 299 300 300 300 300 301 302 304 306 305 306 307 309 312 312 311 314 319 321 323 325 325 326 326 324 324 325 326 325 327 328 329 328 327 327 328 327
297 297 298 299 299 298 299 299 299 298 298 298 298 299 299 300 300 302 304 304 306 310 308 311 312 310 313 317 322 327 327 328 328 327 327 326 326 323 328 327 328 327 326
296 296 296 299 298 298 298 298 298 298 298 298 298 297 297 297 297 298 299 301 301 303 304 304 304 305 309 312 311 316 313 296 306 311 327 328 327 327 328 328 327 326 325
296 296 295 296 296 298 298 298 298 298 297 297 297 297 297 297 297 296 296 296 297 297 297 298 301 302 304 305 307 302 294 291 299 293 308 322 326 327 328 328 327 325 325
Wind_Speed
4 3 1 2 1 3 3 4 4 4 4 3 2 4 4 4 5 5 6 6 5 5 5 6 6 4 4 3 4 4 5 4 5 3 4 2 3 5 4 4 5 5 5
3 2 3 4 3 3 5 5 5 6 6 6 5 4 5 4 5 6 7 4 5 4 5 4 6 7 6 4 4 6 5 6 4 6 3 3 6 4 3 4 4 4 5
5 2 2 3 3 5 5 6 5 4 5 5 6 6 6 7 6 5 7 6 3 2 3 5 5 6 6 6 6 5 5 5 5 4 4 3 4 2 1 3 3 3 3
4 4 2 3 4 3 3 4 5 5 5 6 3 5 6 8 5 6 7 6 6 5 6 7 6 6 8 8 7 7 6 5 4 3 4 3 4 3 2 2 4 1 4
5 3 2 0 2 3 3 3 3 5 5 4 6 7 6 4 2 3 5 3 5 6 6 6 7 8 10 8 5 5 4 4 4 4 4 3 3 3 4 2 4 2 3
5 5 4 3 1 2 4 5 5 5 5 6 6 6 6 4 8 6 5 4 4 4 5 6 6 8 7 10 11 8 8 5 5 4 3 5 5 4 3 4 3 2 2
5 4 2 1 2 2 2 4 5 6 4 5 6 6 7 6 8 9 8 4 4 5 5 5 5 4 6 5 6 9 9 11 10 5 6 6 5 6 5 3 4 4 4
2 2 2 0 2 2 3 3 4 2 4 3 5 6 6 7 11 11 11 6 5 6 6 6 5 6 5 5 4 4 5 5 6 6 8 8 7 5 6 6 6 4 0
3 3 2 4 3 1 1 4 5 3 4 4 4 6 6 8 11 13 10 6 6 7 6 6 5 6 7 7 4 5 5 5 5 10 10 11 10 11 7 4 3 3 3
4 4 2 1 2 3 4 5 3 3 5 5 6 6 8 8 10 12 9 4 6 4 5 6 9 7 8 7 5 4 5 5 4 4 4 5 5 5 7 6 3 5 2
2 3 4 3 5 5 5 3 4 5 5 6 5 6 7 6 9 14 11 4 5 4 4 5 4 8 7 6 7 5 5 1 4 4 4 3 3 4 5 6 6 6 4
5 5 6 6 5 4 5 4 5 4 4 5 6 6 5 7 6 11 10 4 7 4 5 4 5 8 8 7 5 7 6 3 2 3 3 4 4 5 4 6 8 9 7
6 6 6 6 6 6 6 6 4 5 3 5 4 5 6 6 6 10 13 12 8 5 5 7 9 8 7 6 12 10 5 3 3 3 4 4 4 5 5 4 5 7 7
7 7 6 6 7 6 4 4 3 4 4 4 4 5 5 5 6 7 5 4 7 5 7 6 7 6 7 6 4 5 5 4 5 7 5 5 4 4 6 6 7 6 7
5 5 6 5 5 6 5 4 4 5 5 5 5 5 5 6 7 9 6 7 5 4 5 3 3 3 5 5 4 5 5 5 6 7 8 8 9 7 6 6 7 7 8
6 6 6 5 5 5 7 8 8 10 13 12 13 9 8 11 13 15 13 11 12 8 3 4 6 5 6 6 5 5 4 7 7 6 7 7 9 7 6 6 7 7 8
6 7 6 6 6 6 7 7 10 9 12 14 13 13 9 14 16 16 9 9 6 4 4 4 4 5 6 6 7 6 8 6 7 6 7 8 8 7 7 7 7 7 8
6 10 5 6 5 6 6 9 9 8 9 7 8 11 12 17 15 13 6 3 2 4 4 4 5 6 6 7 7 7 7 6 6 7 7 8 8 8 8 7 7 9 8
5 6 6 6 6 8 8 8 8 9 9 9 9 9 9 13 13 7 4 3 4 6 5 5 6 6 6 6 7 7 8 8 7 6 7 7 8 8 8 8 7 9 9
7 15 11 7 8 8 8 9 9 9 9 9 9 10 10 7 5 5 4 5 6 6 6 7 7 7 7 7 7 7 7 7 7 7 8 8 8 8 9 8 8 8 7
5 7 15 7 8 8 8 9 9 9 9 9 9 9 13 10 10 8 7 7 6 8 8 7 7 7 7 7 8 7 7 8 7 8 8 8 9 9 9 8 8 8 7
4 6 7 8 8 8 9 9 9 10 10 11 10 10 14 10 9 8 8 8 9 8 8 9 8 8 7 8 8 8 9 9 9 8 8 9 9 10 9 9 8 7 7
4 5 7 7 8 12 9 9 9 10 11 11 11 11 10 9 10 10 10 9 8 10 10 8 9 8 7 7 8 9 10 10 10 8 9 9 9 9 8 9 9 8 8
4 5 6 9 7 8 9 9 9 10 10 10 10 10 10 11 11 12 11 10 10 9 9 10 7 12 12 12 10 11 9 10 9 10 13 10 9 9 10 9 9 10 9
3 4 4 6 6 7 8 9 9 9 9 9 10 10 10 10 10 11 11 11 11 11 11 11 10 13 16 17 17 19 16 16 12 14 10 11 13 14 11 10 10 9 11
2 3 3 4 4 5 7 7 9 9 9 9 9 9 10 11 10 11 11 12 11 11 15 11 13 18 20 16 18 20 19 18 15 14 10 11 14 12 11 11 13 8 11
Wind_Direction
168 144 175 266 267 340 322 324 322 308 261 252 212 173 182 207 231 274 263 260 240 244 229 196 218 225 227 217 197 185 203 173 223 277 247 239 253 232 254 238 237 225 221
121 152 200 241 285 302 308 301 312 293 281 265 239 236 180 195 220 253 282 277 255 274 269 216 226 205 215 214 214 217 195 192 181 221 249 253 226 212 206 230 228 222 211
169 220 256 255 270 302 321 320 313 311 305 286 261 255 239 225 226 235 258 278 161 125 266 270 238 206 224 220 215 208 202 203 196 190 242 248 269 212 8 243 243 265 234
126 115 160 287 296 304 322 349 355 356 4 357 334 267 254 265 243 232 232 234 221 213 243 249 241 216 226 225 211 209 207 196 186 195 217 245 247 249 218 230 304 245 265
133 134 160 249 331 342 10 13 21 15 358 1 354 345 339 327 296 263 269 251 226 236 240 242 247 240 229 213 199 206 208 205 192 203 218 216 231 217 208 200 226 254 273
158 187 186 171 194 322 347 348 348 350 355 349 346 336 330 317 332 321 285 283 288 271 268 277 270 270 256 232 216 198 194 198 222 190 204 213 225 216 201 205 196 181 279
185 214 213 221 279 315 338 345 346 337 331 331 327 328 323 311 316 314 302 295 284 275 273 281 288 271 269 251 236 230 235 244 238 214 225 217 226 207 178 201 215 189 202
55 295 267 175 75 25 39 2 326 299 307 296 298 305 302 293 295 295 292 285 276 271 265 266 270 279 272 278 284 285 268 252 228 221 234 245 226 211 195 185 194 202 252
226 156 138 131 140 113 333 310 292 287 300 293 291 293 288 286 284 287 291 280 264 258 252 251 249 266 274 278 275 272 280 277 256 245 241 250 250 244 211 143 181 143 235
146 189 193 209 232 247 259 285 273 288 284 299 309 305 293 291 299 283 282 260 269 274 271 256 222 223 259 259 224 240 264 268 291 300 281 263 237 237 224 216 183 198 181
205 236 254 266 270 272 272 271 283 304 315 319 322 315 311 303 306 303 295 255 239 264 264 275 234 202 179 166 192 195 219 266 296 304 296 283 269 228 211 216 221 208 191
321 336 326 320 300 286 260 279 285 290 303 311 322 314 304 302 289 312 325 257 279 246 262 259 259 206 203 202 196 243 253 264 265 294 288 277 262 254 234 217 217 221 221
26 10 360 339 333 323 312 305 304 296 276 290 281 281 293 300 305 295 303 311 269 246 271 270 254 230 204 218 233 248 225 208 221 243 251 249 238 258 274 222 218 222 229
5 352 341 337 329 326 321 306 291 281 282 275 276 270 274 286 295 301 297 304 303 285 275 285 278 265 219 229 247 203 214 219 235 253 253 259 261 258 260 247 238 220 227
346 330 326 320 318 322 316 297 296 282 246 284 264 250 266 279 269 262 276 307 288 263 318 270 267 237 249 241 247 237 215 206 227 241 259 265 261 248 259 253 237 235 232
343 332 318 317 319 322 318 316 299 283 291 284 268 245 279 252 273 278 279 277 271 290 257 252 262 248 244 256 258 256 218 223 228 224 238 250 252 239 248 256 235 223 236
333 319 318 320 319 317 317 311 313 308 286 290 287 293 249 251 282 281 271 264 272 176 221 252 253 257 257 252 253 247 256 231 223 222 235 244 245 237 235 250 243 221 230
322 311 318 316 309 307 304 312 308 302 305 306 320 302 295 296 289 278 254 164 214 234 233 241 250 250 245 242 249 249 252 250 229 234 234 239 240 239 240 239 240 233 223
321 321 321 317 311 309 312 315 314 314 311 309 310 296 289 280 285 294 184 243 260 271 258 235 231 242 245 239 238 241 241 246 235 229 233 235 240 240 239 231 232 226 221
333 335 339 327 324 322 318 313 310 306 304 303 305 305 310 312 304 294 261 256 259 254 263 260 256 242 240 242 241 233 238 241 242 236 240 240 243 241 237 227 219 225 218
336 346 342 331 332 328 324 324 314 312 314 313 314 316 313 303 297 291 291 293 288 286 278 264 260 257 253 249 248 248 242 246 238 236 238 237 242 246 241 229 213 209 212
331 345 348 345 337 336 333 325 329 326 322 320 318 319 319 310 306 306 302 295 291 291 288 280 273 266 265 260 256 249 250 249 246 238 238 239 239 242 241 232 212 206 204
336 351 355 356 350 340 333 332 330 330 327 324 322 320 325 327 325 319 316 318 327 314 299 310 306 288 276 274 265 258 259 255 251 246 244 240 233 230 229 229 224 213 203
352 341 350 0 351 349 341 333 330 329 328 328 328 327 326 324 317 316 316 314 302 304 321 300 317 311 303 295 293 266 246 253 257 256 247 242 237 229 220 222 224 219 223
351 344 338 352 343 339 331 336 332 329 330 328 326 326 322 320 317 316 315 315 310 301 304 309 300 294 292 299 296 292 290 286 275 269 260 246 241 236 222 217 213 214 213
313 339 325 319 316 325 332 333 331 329 330 329 326 324 324 323 321 319 316 313 309 307 306 297 295 297 297 296 294 294 292 290 288 271 255 252 248 240 221 211 210 204 203